Regional Weather Roundup
Issued by NWS

Home | Current Version | Previous Version | Graphics & Text | Print | Product List | Glossary On
Versions: 1 2 3 4 5 6 7 8 9 10 11 12 13 14 15 16 17 18 19 20 21 22 23 24 25 26 27 28 29 30 31 32 33 34 35 36 37 38 39 40 41 42 43 44 45 46 47 48 49 50
008
ASUS43 KLOT 211803
RWRIL

ILLINOIS REGIONAL WEATHER ROUNDUP
NATIONAL WEATHER SERVICE CHICAGO/ROMEOVILLE IL
1200 PM CST SAT JAN 21 2017

NOTE: "FAIR" INDICATES FEW OR NO CLOUDS BELOW 12,000 FEET WITH NO
SIGNIFICANT WEATHER AND/OR OBSTRUCTIONS TO VISIBILITY.

* THESE STATIONS ARE NOT UNDER NWS QUALITY CONTROL. THEY ALSO MAY NOT
  REPORT WEATHER SUCH AS PRECIPITATION OR FOG.

ILZ001-002-007-009-015-016-024-211900-
NORTHWEST ILLINOIS

CITY           SKY/WX    TMP DP  RH WIND       PRES   REMARKS
MOLINE         PTSUNNY   53  45  74 W13       29.45S
6HR MIN TEMP:  40; 6HR MAX TEMP:  53;

STERLING*      MOSUNNY   54  46  74 SW12G17   29.45F
SAVANNA*       CLOUDY    46  44  92 SW6       29.44F
$$

ILZ003-004-008-010-011-017-018-211900-
NORTH CENTRAL ILLINOIS

CITY           SKY/WX    TMP DP  RH WIND       PRES   REMARKS
ROCKFORD       MOSUNNY   54  47  77 S13       29.45F
6HR MIN TEMP:  46; 6HR MAX TEMP:  54;

FREEPORT*      PTSUNNY   47  46  94 SW15      29.45S
ROCHELLE*      SUNNY     53  48  84 S17       29.45F
DE KALB*       SUNNY     53  49  89 S15       29.47F
$$

ILZ005-006-012>014-019>023-211900-
NORTHEAST ILLINOIS

CITY           SKY/WX    TMP DP  RH WIND       PRES   REMARKS
CHICAGO-OHARE  MOSUNNY   57  46  66 S14G23    29.47F
6HR MIN TEMP:  47; 6HR MAX TEMP:  57;

CHICAGO-MIDWAY MOSUNNY   58  46  64 S15       29.49F
6HR MIN TEMP:  48; 6HR MAX TEMP:  58;

AURORA         SUNNY     57  47  69 SW14      29.47
6HR MIN TEMP:  46; 6HR MAX TEMP:  57;

LANSING*       SUNNY     57  52  82 S15G21    29.52S
JOLIET*        SUNNY     59  50  71 S12G17    29.49F
WAUKEGAN       SUNNY     51  48  89 VRB6      29.46F
6HR MIN TEMP:  40; 6HR MAX TEMP:  51;

DUPAGE AIRPORT SUNNY     57  46  66 S14       29.47F
6HR MIN TEMP:  47; 6HR MAX TEMP:  57;

KANKAKEE*      SUNNY     58  51  76 SW13G18   29.51F
WHEELING       SUNNY     57  46  66 S12       29.48F
6HR MIN TEMP:  47; 6HR MAX TEMP:  57;

MORRIS*        SUNNY     57  49  73 SW15      29.47F
NORTHERLY ISL    N/A     56  45  66 S17         N/A
$$

LMZ740>746-211900-
SOUTHERN LAKE MICHIGAN

STATION/POSITION SKY/WX   TEMP    WIND        PRES    VSBY  WAVE
                          AIR SEA DIR/SP/G                  HT/PER
                          (F)     (DEG/KT/KT) (MB)    (MI)  (FT/S)
HARRISON CRIB              51     190/ 14/ 16   N/A
BURNHAM HARBOR             57     180/ 14/ 18   N/A
CALUMET HARBOR             56     190/  8/ 15  998.8F
BURNS HARBOR               57     180/ 16/ 21 1000.0F
MICHIGAN CITY              57     160/ 12/ 16   N/A
$$

ILZ025>027-034>036-040-047-049-050-058-095>099-211900-
WEST-CENTRAL ILLINOIS

CITY           SKY/WX    TMP DP  RH WIND       PRES   REMARKS
QUINCY         SUNNY     54  45  71 SW18      29.50F
GALESBURG*     SUNNY     52  45  77 SW14G21   29.47F
MACOMB*        SUNNY     54  46  76 SW16G23   29.51S
JACKSONVILLE*  SUNNY     59  44  57 SW16      29.51F
PITTSFIELD*    SUNNY     58  43  58 SW16      29.52F
$$

ILZ028>032-037-038-041>044-048-051>054-059>061-211900-
CENTRAL ILLINOIS

CITY           SKY/WX    TMP DP  RH WIND       PRES   REMARKS
BLOOMINGTON    SUNNY     58  48  69 SW21      29.51F
DECATUR        SUNNY     60  50  69 SW17G25   29.53F
PEORIA         SUNNY     57  44  62 SW15      29.49F
6HR MIN TEMP:  46; 6HR MAX TEMP:  57;

LACON*         SUNNY     56  45  65 SW13      29.46F
LINCOLN*       SUNNY     63  50  63 SW8       29.51F
SPRINGFIELD    SUNNY     62  47  57 SW14G23   29.51F
6HR MIN TEMP:  50; 6HR MAX TEMP:  62;

TAYLORVILLE    SUNNY     60  51  71 SW16      29.53F
6HR MIN TEMP:  48; 6HR MAX TEMP:  60;

$$

ILZ033-039-045-046-055>057-062-063-211900-
EAST-CENTRAL ILLINOIS

CITY           SKY/WX    TMP DP  RH WIND       PRES   REMARKS
CHAMPAIGN      SUNNY     60  50  69 SW21      29.54F
MATTOON        SUNNY     60  51  72 S10G21    29.56F
PARIS*         MOSUNNY   59  55  87 S16       29.58F
$$

ILZ079-100>102-211900-
SOUTHWEST ILLINOIS

CITY           SKY/WX    TMP DP  RH WIND       PRES   REMARKS
ALTON          SUNNY     61  48  63 S12       29.55F
BELLEVILLE     SUNNY     65  51  61 VRB5      29.54F
CAHOKIA*       SUNNY     64  46  52 SW8G18    29.55F
SPARTA*        SUNNY     64  50  60 S9        29.58F
$$

ILZ064>066-069>071-074>076-080>082-084>086-088>090-092>094-211900-
SOUTH-CENTRAL ILLINOIS

CITY           SKY/WX    TMP DP  RH WIND       PRES   REMARKS
CARBONDALE     SUNNY     66  57  72 S17G28    29.59F
6HR MIN TEMP:  48; 6HR MAX TEMP:  66;

CAIRO*         SUNNY     67  54  63 S18       29.62F
EFFINGHAM*     SUNNY     64  54  70 S12G18    29.58F
MARION         MOSUNNY   68  57  68 S17G23    29.61F
MT. VERNON     SUNNY     64  54  69 SW13      29.58F
CENTRALIA*     SUNNY     65  55  70 S13       29.57F
SALEM*         SUNNY     65  53  65 S13       29.58F
METROPOLIS*    SUNNY     69  53  57 S10       29.63F
$$

ILZ067-068-072-073-078-083-087-091-211900-
SOUTHEAST ILLINOIS

CITY           SKY/WX    TMP DP  RH WIND       PRES   REMARKS
LAWRENCEVILLE  CLOUDY    64  56  75 SW20      29.59F
FLORA*         MOSUNNY   64  56  74 SW14G20   29.59F
FAIRFIELD*     SUNNY     64  56  74 S12       29.59F
HARRISBURG*    SUNNY     66  55  66 SW18G26   29.61F
ROBINSON*      MOSUNNY   60  55  82 S17       29.60F
CARMI*         SUNNY     65  56  73 S17G23    29.61F
$$

ABBREVIATIONS USED IN REMARKS
   TC - TEMPERATURE IN CELSIUS
  WCI - WIND CHILL INDEX
   HX - HEAT INDEX
  VSB - VISIBILITY
$$





USA.gov is the U.S. government's official web portal to all federal, state and local government web resources and services.